User: anonymous   Login
Location: Arbon
(43.0005°N, 0.7472°E)
Time: 06:47:05
(UTC+00:00)
Language:

Vanguard 3 - Orbit

View from above orbital plane
View from above orbital plane
View from above satellite
View from above satellite

Ground track
Ground track

The orbit data is extracted from the following two-line orbital elements,

1    20U 59007A   20331.32070617 +.00000317 +00000-0 +13626-3 0  9990
2    20 033.3445 325.3975 1666455 045.3820 327.1204 11.55772844249339
Epoch (UTC): 26 November 2020 07:41:49
Eccentricity: 0.1666455
inclination: 33.3445°
perigee height: 508 km
apogee height: 3262 km
right ascension of ascending node: 325.3975°
argument of perigee: 45.3820°
revolutions per day: 11.55772844
mean anomaly at epoch: 327.1204°
orbit number at epoch: 24933

The dashed part of the orbit path shows where the satellite is in the earth's shadow,  

DLR